Precipitable_Water
0.62 0.60 0.57 0.56 0.56 0.56 0.55 0.54 0.46 0.37 0.36 0.35 0.29 0.27 0.26 0.27 0.26 0.31 0.27 0.23 0.20 0.19 0.19 0.19 0.18 0.20 0.20 0.20 0.21 0.21 0.22 0.23 0.24 0.25 0.26 0.27 0.28 0.29
0.63 0.62 0.58 0.59 0.59 0.61 0.51 0.48 0.46 0.42 0.35 0.37 0.31 0.28 0.25 0.24 0.25 0.30 0.27 0.23 0.20 0.17 0.18 0.17 0.18 0.18 0.19 0.19 0.19 0.19 0.20 0.21 0.22 0.23 0.24 0.25 0.27 0.27
0.61 0.63 0.60 0.62 0.69 0.54 0.49 0.44 0.42 0.42 0.37 0.34 0.32 0.30 0.24 0.22 0.25 0.28 0.27 0.22 0.19 0.17 0.16 0.16 0.16 0.17 0.17 0.18 0.18 0.18 0.18 0.19 0.20 0.21 0.21 0.22 0.23 0.24
0.67 0.64 0.67 0.73 0.63 0.50 0.42 0.39 0.38 0.41 0.35 0.30 0.30 0.27 0.25 0.27 0.25 0.23 0.26 0.21 0.18 0.16 0.15 0.16 0.17 0.18 0.18 0.17 0.17 0.17 0.18 0.18 0.19 0.20 0.20 0.20 0.21 0.21
0.73 0.74 0.78 0.67 0.49 0.46 0.40 0.38 0.36 0.37 0.35 0.30 0.27 0.28 0.27 0.26 0.23 0.23 0.21 0.21 0.17 0.16 0.16 0.18 0.18 0.20 0.19 0.17 0.16 0.17 0.17 0.17 0.17 0.18 0.18 0.18 0.19 0.20
0.79 0.81 0.69 0.51 0.48 0.45 0.40 0.38 0.36 0.36 0.33 0.30 0.28 0.28 0.26 0.25 0.24 0.21 0.21 0.23 0.18 0.18 0.16 0.18 0.20 0.21 0.20 0.18 0.15 0.16 0.17 0.17 0.17 0.17 0.18 0.17 0.18 0.20
0.77 0.71 0.55 0.51 0.50 0.47 0.41 0.38 0.36 0.34 0.33 0.29 0.28 0.27 0.25 0.22 0.20 0.22 0.23 0.23 0.23 0.23 0.18 0.18 0.20 0.21 0.21 0.19 0.17 0.16 0.16 0.17 0.17 0.17 0.18 0.18 0.18 0.19
0.71 0.63 0.53 0.51 0.50 0.46 0.45 0.42 0.40 0.34 0.32 0.31 0.28 0.25 0.24 0.23 0.24 0.22 0.21 0.20 0.19 0.26 0.17 0.20 0.21 0.20 0.21 0.19 0.18 0.17 0.17 0.17 0.17 0.17 0.18 0.19 0.18 0.19
0.67 0.56 0.52 0.50 0.48 0.46 0.43 0.41 0.41 0.41 0.38 0.34 0.29 0.26 0.24 0.24 0.23 0.22 0.20 0.20 0.21 0.23 0.16 0.19 0.22 0.19 0.19 0.19 0.19 0.18 0.18 0.17 0.17 0.17 0.18 0.18 0.17 0.18
0.59 0.56 0.49 0.47 0.45 0.42 0.39 0.39 0.39 0.39 0.39 0.37 0.32 0.28 0.25 0.24 0.23 0.23 0.21 0.20 0.20 0.19 0.16 0.17 0.21 0.17 0.19 0.19 0.21 0.19 0.19 0.18 0.17 0.17 0.17 0.17 0.17 0.17
0.57 0.51 0.50 0.45 0.43 0.41 0.41 0.38 0.37 0.36 0.37 0.36 0.31 0.29 0.25 0.23 0.23 0.21 0.19 0.20 0.20 0.20 0.19 0.14 0.18 0.16 0.18 0.19 0.21 0.22 0.20 0.19 0.19 0.18 0.18 0.17 0.17 0.17
0.56 0.54 0.46 0.44 0.40 0.43 0.39 0.36 0.33 0.32 0.31 0.29 0.26 0.23 0.21 0.21 0.23 0.24 0.25 0.20 0.19 0.18 0.20 0.14 0.16 0.15 0.15 0.22 0.21 0.22 0.20 0.20 0.19 0.19 0.18 0.17 0.18 0.17
0.54 0.50 0.47 0.42 0.46 0.44 0.41 0.36 0.33 0.33 0.30 0.26 0.23 0.22 0.20 0.19 0.21 0.23 0.24 0.22 0.19 0.18 0.19 0.14 0.15 0.16 0.15 0.15 0.18 0.21 0.20 0.18 0.18 0.17 0.17 0.15 0.18 0.17
0.51 0.49 0.49 0.51 0.50 0.45 0.44 0.40 0.37 0.32 0.29 0.27 0.24 0.22 0.21 0.21 0.22 0.20 0.20 0.21 0.21 0.19 0.18 0.14 0.15 0.15 0.14 0.14 0.15 0.18 0.18 0.18 0.17 0.15 0.15 0.13 0.16 0.16
0.52 0.51 0.52 0.54 0.48 0.45 0.44 0.42 0.39 0.34 0.30 0.26 0.24 0.24 0.23 0.24 0.22 0.20 0.18 0.18 0.16 0.15 0.15 0.13 0.14 0.15 0.14 0.15 0.15 0.15 0.15 0.15 0.16 0.14 0.13 0.12 0.14 0.15
0.53 0.50 0.52 0.51 0.46 0.43 0.42 0.43 0.38 0.34 0.29 0.26 0.26 0.26 0.25 0.23 0.19 0.19 0.19 0.19 0.18 0.18 0.20 0.18 0.16 0.14 0.13 0.15 0.15 0.14 0.16 0.13 0.13 0.12 0.11 0.12 0.13 0.14
0.49 0.48 0.45 0.43 0.42 0.39 0.40 0.40 0.36 0.31 0.28 0.28 0.27 0.25 0.23 0.20 0.19 0.21 0.21 0.20 0.18 0.19 0.18 0.19 0.18 0.16 0.15 0.15 0.13 0.15 0.15 0.13 0.13 0.11 0.11 0.10 0.11 0.12
0.44 0.41 0.40 0.41 0.39 0.37 0.37 0.36 0.32 0.29 0.28 0.28 0.27 0.24 0.21 0.20 0.20 0.20 0.19 0.18 0.18 0.19 0.17 0.18 0.16 0.15 0.15 0.17 0.18 0.16 0.14 0.13 0.12 0.11 0.11 0.09 0.09 0.10
0.40 0.39 0.39 0.39 0.38 0.38 0.35 0.31 0.27 0.28 0.28 0.27 0.25 0.24 0.22 0.22 0.20 0.19 0.18 0.18 0.18 0.17 0.16 0.15 0.13 0.13 0.11 0.12 0.17 0.17 0.14 0.13 0.12 0.11 0.11 0.10 0.09 0.09
0.38 0.39 0.39 0.38 0.38 0.37 0.34 0.28 0.28 0.27 0.26 0.26 0.24 0.24 0.23 0.22 0.19 0.18 0.17 0.16 0.16 0.17 0.15 0.14 0.13 0.13 0.12 0.12 0.12 0.13 0.17 0.14 0.12 0.11 0.11 0.10 0.10 0.10
0.39 0.39 0.39 0.39 0.39 0.39 0.31 0.29 0.28 0.27 0.25 0.25 0.23 0.24 0.23 0.21 0.19 0.18 0.17 0.17 0.18 0.17 0.16 0.15 0.16 0.15 0.14 0.14 0.13 0.14 0.15 0.15 0.15 0.13 0.12 0.10 0.09 0.09
0.40 0.39 0.40 0.40 0.40 0.36 0.32 0.31 0.29 0.28 0.26 0.25 0.24 0.24 0.23 0.22 0.20 0.19 0.18 0.17 0.17 0.17 0.17 0.17 0.17 0.15 0.14 0.14 0.13 0.13 0.13 0.15 0.15 0.14 0.13 0.12 0.10 0.08
0.40 0.40 0.41 0.41 0.37 0.34 0.32 0.31 0.30 0.29 0.28 0.26 0.25 0.25 0.24 0.22 0.22 0.21 0.21 0.20 0.19 0.18 0.19 0.17 0.17 0.16 0.15 0.15 0.14 0.14 0.14 0.14 0.14 0.12 0.11 0.12 0.11 0.11
Wind_Speed
32 32 31 30 29 28 27 27 25 23 23 20 19 19 18 18 19 19 19 21 21 22 23 24 25 26 27 26 26 25 24 23 23 23 23 24 24 24
34 33 32 31 31 30 28 25 23 22 20 19 18 18 18 19 19 19 20 20 20 22 23 23 24 25 27 26 25 24 23 23 22 22 22 23 23 23
35 34 33 32 31 29 26 24 22 21 19 17 17 18 18 19 19 20 19 20 20 22 22 24 24 26 26 25 24 23 22 22 21 22 22 22 22 22
35 34 33 32 28 27 25 24 23 21 19 18 18 19 19 19 19 19 19 19 21 22 22 23 25 25 25 24 23 22 21 21 21 21 21 21 21 21
36 34 32 29 28 27 25 24 23 21 20 19 19 19 19 19 19 18 19 20 21 22 23 23 25 25 24 22 22 21 20 20 20 20 20 21 21 21
35 33 31 30 28 27 26 23 22 21 20 19 19 18 18 19 19 19 19 20 21 22 23 23 24 23 22 22 21 20 20 20 20 20 20 20 21 21
35 32 31 29 29 27 26 24 23 22 20 19 19 19 18 18 18 19 19 19 21 22 23 23 24 22 22 21 21 20 20 20 20 20 20 21 21 20
33 32 30 30 28 27 26 25 24 24 22 20 20 19 19 18 18 19 20 19 20 22 23 22 22 22 21 21 20 20 20 20 20 21 21 21 21 20
32 32 31 30 29 29 28 26 24 24 23 22 20 20 19 19 18 18 18 19 19 21 22 22 21 21 21 20 19 20 20 20 20 20 20 21 21 21
31 32 31 31 31 31 30 28 25 24 23 22 21 20 19 19 18 17 17 17 18 20 20 20 20 21 20 19 19 20 20 20 21 21 21 21 22 22
36 34 33 32 33 32 31 29 27 25 23 21 20 19 18 18 17 16 16 17 18 18 19 19 20 20 19 19 19 20 20 21 21 21 22 22 23 23
36 36 35 35 35 33 32 30 29 27 24 22 20 19 18 18 16 16 17 17 17 17 18 17 18 19 19 18 19 20 21 21 22 22 22 23 24 24
38 37 35 35 35 34 33 31 30 28 25 23 21 19 18 17 16 15 16 17 16 17 16 17 18 18 18 18 19 19 20 22 22 23 23 24 24 25
35 36 36 37 35 36 34 32 31 28 26 24 21 20 18 17 16 15 15 15 15 15 16 17 17 17 18 18 19 20 21 22 21 23 24 25 25 26
35 34 33 35 35 35 34 34 31 28 26 24 22 20 18 17 15 15 15 15 15 15 15 16 17 17 17 18 20 20 21 22 22 24 25 26 27 28
33 33 33 32 33 32 33 33 31 29 27 25 22 20 19 17 16 16 15 15 15 16 16 16 16 17 18 19 19 20 21 22 24 25 27 27 28 29
30 31 32 33 33 33 32 32 31 29 27 25 23 21 19 18 17 16 16 16 16 16 16 16 17 18 19 19 20 21 22 23 25 26 28 28 30 31
32 32 32 33 34 34 33 32 31 29 27 25 23 21 20 19 18 17 17 17 16 17 17 16 18 19 20 20 21 22 24 25 27 28 29 31 32 33
32 32 32 32 33 34 33 32 30 29 27 25 24 22 21 20 19 18 18 18 18 18 18 18 19 20 21 21 22 23 25 27 28 30 31 32 34 36
32 32 32 33 34 34 32 31 29 28 27 25 24 23 22 21 20 20 20 19 19 19 20 20 21 22 22 23 25 27 27 28 30 31 33 34 36 38
30 30 31 32 34 33 31 30 29 28 27 25 25 24 23 22 22 22 21 21 21 21 21 22 22 23 25 25 26 27 28 31 31 33 34 36 37 38
27 28 29 31 31 30 29 28 28 26 26 25 25 24 23 23 23 23 22 22 22 23 24 23 24 25 26 27 27 28 30 31 33 33 35 37 37 38
25 26 28 29 29 28 27 27 27 26 26 25 25 24 24 24 24 24 23 23 24 24 25 25 26 27 28 28 28 29 30 32 32 33 35 36 38 40
Wind_Direction
252 253 254 256 258 257 258 248 249 251 252 253 262 263 271 276 282 286 295 303 308 309 311 313 317 319 320 319 317 316 315 317 319 321 323 324 323 322
251 253 253 256 257 254 249 245 246 250 257 253 260 263 268 276 279 284 292 299 305 308 310 313 317 319 319 316 316 316 316 316 318 321 323 324 326 327
248 252 251 255 254 246 242 240 241 252 251 257 257 263 268 274 279 284 288 296 302 308 309 313 316 317 318 316 317 316 316 316 317 320 323 326 326 328
247 246 251 253 243 238 233 236 241 249 248 253 259 263 268 273 278 283 286 292 300 306 309 312 315 317 316 316 318 316 315 316 317 319 323 325 327 329
244 247 249 238 233 229 232 234 238 246 248 252 259 261 267 271 275 281 287 293 300 304 306 310 313 315 315 316 317 319 317 317 318 319 322 326 328 330
244 246 234 232 231 228 231 236 238 244 245 251 254 259 263 268 274 278 286 293 298 305 305 306 309 311 312 316 317 317 318 318 319 320 321 324 327 329
243 235 231 230 228 230 232 235 238 242 245 249 256 258 261 266 271 278 285 292 298 302 305 304 308 305 307 312 315 317 315 317 318 320 320 322 324 326
233 230 229 229 230 231 232 235 239 240 246 252 255 256 261 263 271 277 283 292 297 302 304 305 306 305 305 308 311 315 315 315 316 318 318 319 321 322
227 228 230 232 234 233 231 233 238 242 247 250 252 255 258 263 268 277 284 290 296 300 304 303 304 304 305 305 307 313 314 314 315 316 318 320 321 320
230 229 234 234 235 232 231 233 237 242 246 249 250 255 257 261 268 276 282 288 296 301 304 303 303 305 304 303 304 310 313 314 314 314 315 317 319 320
236 236 237 237 234 231 230 233 235 239 242 244 247 251 254 259 267 275 281 286 294 298 303 303 303 305 304 303 303 306 311 313 314 314 314 314 315 316
235 236 239 238 231 231 232 232 233 236 237 241 245 248 253 259 265 274 279 286 292 298 300 302 304 307 307 301 304 305 309 312 313 314 315 315 314 313
236 236 237 231 230 231 232 231 232 233 235 237 240 246 252 256 264 274 279 287 290 296 298 301 304 305 304 305 307 306 310 313 313 314 315 316 315 315
235 234 233 229 229 230 233 229 228 231 233 235 239 243 248 254 263 271 278 285 291 294 297 300 302 304 304 305 307 309 312 315 315 316 316 316 315 315
235 231 227 228 228 230 230 225 228 229 230 234 238 242 246 251 258 267 276 282 287 291 295 299 299 300 300 302 306 309 312 313 316 317 318 318 316 316
229 228 228 228 227 227 224 225 227 228 229 232 235 239 244 250 259 266 274 279 285 289 290 296 298 296 299 302 305 307 311 312 314 316 317 317 317 316
231 226 228 227 226 224 223 222 224 225 227 229 232 236 243 251 256 263 270 275 281 284 287 292 293 294 296 300 304 306 310 312 313 315 316 316 315 316
227 231 232 229 226 222 221 221 222 224 226 229 232 237 242 248 254 260 266 271 277 281 286 287 291 293 296 295 298 303 308 310 313 315 316 316 315 316
230 231 229 226 223 218 217 220 221 224 226 229 232 237 242 248 252 258 263 268 275 279 282 286 290 292 295 298 300 301 306 308 311 313 315 315 315 315
230 230 230 224 219 214 217 219 221 223 226 229 234 238 243 248 252 257 262 268 274 278 281 283 286 289 293 295 298 302 304 307 309 311 314 315 315 315
228 230 223 218 213 212 215 218 221 223 227 231 235 239 244 250 253 258 263 267 273 277 280 282 284 288 292 295 298 300 303 306 307 310 312 313 314 315
228 221 214 209 210 213 214 218 221 223 228 232 237 241 247 251 255 259 263 268 273 276 280 282 284 288 291 293 296 299 303 305 308 310 312 313 314 314
211 208 207 209 212 214 218 220 223 227 231 235 239 244 249 253 257 260 265 269 274 275 278 281 284 287 290 292 295 298 302 305 307 310 312 313 314 315